1520852400.04,7784,9.06,72122.3,-2.59,-4.05,-4.01,0,*66
1520852401.26,7785,9.0,72128.3,-2.59,-4.05,-3.91,0,*69
1520852402.45,7786,9.0,72134.0,-2.57,-3.95,-3.87,0,*6D
1520852403.67,7787,9.0,72128.0,-2.57,-3.95,-4.01,0,*65
1520852404.86,7788,9.0,72134.3,-2.57,-3.95,-3.95,0,*60
1520852406.1,7789,9.0,72140.5,-2.57,-4.01,-4.01,0,*61
1520852407.32,7790,9.0,72142.8,-2.57,-4.01,-3.95,0,*63
1520852408.5,7791,9.0,72120.0,-2.57,-3.87,-3.87,0,*68
1520852409.69,7792,9.0,72122.0,-2.57,-3.95,-3.87,0,*68
1520852410.88,7793,9.0,72132.3,-2.57,-3.87,-3.87,0,*6A
1520852412.07,7794,9.0,72128.3,-2.57,-3.87,-3.87,0,*6D
1520852413.26,7795,9.0,72116.8,-2.57,-3.87,-3.75,0,*61
1520852414.49,7796,9.0,72122.3,-2.59,-3.75,-3.79,0,*6D
1520852415.7,7797,9.0,72138.8,-2.57,-3.75,-3.71,0,*6A
1520852416.96,7798,9.0,72128.5,-2.55,-3.59,-3.59,0,*63
1520852418.19,7799,9.0,72132.8,-2.53,-3.55,-3.55,0,*64
1520852419.43,7800,9.06,72136.8,-2.57,-3.59,-3.51,0,*67
1520852420.69,7801,9.0,72138.0,-2.55,-3.47,-3.47,0,*6C
1520852421.93,7802,9.0,72112.5,-2.55,-3.47,-3.35,0,*6A
1520852423.12,7803,9.0,72120.0,-2.53,-3.35,-3.35,0,*68
1520852424.32,7804,9.0,72114.8,-2.53,-3.35,-3.35,0,*6F
1520852425.53,7805,9.0,72124.3,-2.53,-3.43,-3.35,0,*6F
1520852426.72,7806,9.0,72136.0,-2.53,-3.35,-3.35,0,*6D
1520852427.92,7807,9.0,72144.8,-2.53,-3.35,-3.27,0,*6F
1520852429.12,7808,9.0,72142.8,-2.53,-3.27,-3.27,0,*63
1520852430.31,7809,9.0,72142.5,-2.53,-3.27,-3.19,0,*6F
1520852431.52,7810,9.0,72138.3,-2.51,-3.15,-3.11,0,*6C
1520852432.71,7811,9.0,72138.8,-2.49,-3.11,-3.03,0,*63
1520852433.9,7812,9.0,72142.0,-2.49,-2.99,-2.99,0,*63
1520852435.09,7813,9.0,72138.3,-2.49,-3.03,-2.99,0,*60
1520852436.27,7814,9.0,72136.0,-2.49,-3.03,-2.99,0,*67
1520852437.46,7815,9.0,72136.8,-2.45,-2.99,-2.87,0,*67
1520852438.66,7816,9.0,72132.5,-2.43,-2.99,-2.95,0,*61
1520852439.86,7817,9.0,72144.3,-2.43,-3.07,-2.99,0,*6A
1520852441.05,7818,9.0,72142.0,-2.45,-3.07,-2.99,0,*63
1520852442.24,7819,9.0,72146.8,-2.43,-3.11,-3.11,0,*62
1520852443.44,7820,9.0,72150.0,-2.43,-3.11,-3.11,0,*68
1520852444.63,7821,9.0,72140.5,-2.43,-3.11,-3.07,0,*6E
1520852445.82,7822,9.0,72142.8,-2.43,-3.19,-3.07,0,*65
1520852447.02,7823,9.0,72132.5,-2.43,-3.11,-3.07,0,*6C
1520852448.21,7824,9.0,72126.5,-2.43,-3.11,-3.07,0,*6B
1520852449.43,7825,9.0,72134.8,-2.41,-3.15,-3.03,0,*68
1520852450.65,7826,9.0,72122.8,-2.41,-3.07,-3.03,0,*68
1520852451.85,7827,9.0,72106.0,-2.39,-3.15,-3.07,0,*61
1520852453.07,7828,9.0,72124.8,-2.41,-3.19,-3.03,0,*69
1520852454.26,7829,9.0,72096.5,-2.39,-3.19,-3.07,0,*63
1520852455.48,7830,9.0,72102.0,-2.41,-3.15,-3.07,0,*68
1520852456.68,7831,9.0,72102.8,-2.39,-3.19,-3.19,0,*65
1520852457.87,7832,9.0,72118.0,-2.39,-3.19,-3.15,0,*6A
1520852459.06,7833,9.0,72118.3,-2.39,-3.19,-3.15,0,*6B
1520852460.25,7834,9.0,72120.0,-2.39,-3.19,-3.19,0,*60
1520852461.45,7835,9.0,72090.8,-2.39,-3.19,-3.19,0,*61
1520852462.63,7836,9.0,72098.8,-2.39,-3.23,-3.19,0,*6B
1520852463.82,7837,9.0,72098.5,-2.39,-3.23,-3.19,0,*6A
1520852465.03,7838,9.0,72096.0,-2.41,-3.23,-3.23,0,*63
1520852466.22,7839,9.0,72094.3,-2.39,-3.23,-3.23,0,*6D
1520852467.43,7840,9.0,72086.0,-2.41,-3.31,-3.23,0,*6F
1520852468.62,7841,9.0,72078.3,-2.39,-3.23,-3.23,0,*62
1520852469.81,7842,9.0,72088.5,-2.39,-3.31,-3.23,0,*62
1520852471.01,7843,9.0,72098.0,-2.39,-3.31,-3.31,0,*60
1520852472.23,7844,9.0,72112.5,-2.39,-3.43,-3.35,0,*66
1520852473.43,7845,9.0,72140.8,-2.39,-3.35,-3.35,0,*66
1520852474.65,7846,9.0,72102.5,-2.39,-3.35,-3.43,0,*64
1520852475.84,7847,9.0,72124.8,-2.39,-3.35,-3.31,0,*60
1520852477.04,7848,9.0,72122.5,-2.39,-3.35,-3.23,0,*6C
1520852478.23,7849,9.0,72130.3,-2.39,-3.31,-3.23,0,*69
1520852479.42,7850,9.0,72152.3,-2.39,-3.23,-3.19,0,*6B
1520852480.61,7851,9.0,72130.5,-2.39,-3.23,-3.19,0,*6A
1520852481.8,7852,9.0,72090.0,-2.39,-3.19,-3.15,0,*6C
1520852483.02,7853,9.0,72100.8,-2.37,-3.15,-3.11,0,*6B
1520852484.22,7854,9.0,72116.0,-2.39,-3.15,-3.07,0,*65
1520852485.43,7855,9.0,72118.0,-2.39,-2.95,-2.95,0,*67
1520852486.65,7856,9.0,72124.8,-2.37,-2.87,-2.87,0,*6A
1520852487.9,7857,9.0,72122.5,-2.37,-2.79,-2.75,0,*67
1520852489.15,7858,9.0,72120.0,-2.35,-2.71,-2.71,0,*66
1520852490.39,7859,9.0,72118.3,-2.35,-2.71,-2.59,0,*6D
1520852491.66,7860,9.0,72110.3,-2.33,-2.59,-2.55,0,*67
1520852492.93,7861,9.0,72112.5,-2.33,-2.59,-2.51,0,*62
1520852494.21,7862,9.0,72068.0,-2.33,-2.47,-2.47,0,*69
1520852495.4,7863,9.0,72002.8,-2.31,-2.43,-2.43,0,*6A
1520852496.59,7864,9.0,71972.8,-2.31,-2.43,-2.43,0,*6D
1520852497.81,7865,9.0,72030.3,-2.31,-2.47,-2.43,0,*68
1520852499.08,7866,9.0,72066.5,-2.29,-2.59,-2.55,0,*6A
1520852500.33,7867,9.0,72016.5,-2.27,-2.55,-2.55,0,*69
1520852501.57,7868,9.0,71994.3,-2.27,-2.67,-2.55,0,*67
1520852502.84,7869,9.0,72020.0,-2.29,-2.71,-2.55,0,*6F
1520852504.09,7870,9.0,72050.5,-2.27,-2.63,-2.51,0,*6E
1520852505.34,7871,9.0,72048.3,-2.27,-2.51,-2.51,0,*6E
1520852506.56,7872,9.0,72056.8,-2.23,-2.51,-2.43,0,*6A
1520852507.75,7873,9.0,72058.5,-2.23,-2.35,-2.23,0,*6F
1520852508.97,7874,9.0,72070.3,-2.21,-2.19,-2.19,0,*6D
1520852510.25,7875,9.0,72086.8,-2.21,-2.11,-2.07,0,*6B
1520852511.51,7876,9.0,72104.3,-2.21,-2.07,-1.95,0,*67
1520852512.75,7877,9.0,72122.0,-2.17,-1.91,-1.79,0,*6D
1520852513.97,7878,9.0,72130.0,-2.17,-1.71,-1.67,0,*63
1520852515.18,7879,9.0,72134.8,-2.17,-1.67,-1.55,0,*64
1520852516.45,7880,9.0,72132.8,-2.13,-1.39,-1.39,0,*67
1520852517.69,7881,9.0,72142.5,-2.13,-1.39,-1.29,0,*67
1520852518.9,7882,9.0,72124.8,-2.09,-1.25,-1.13,0,*6B
1520852520.11,7883,9.0,72128.8,-2.09,-1.21,-1.13,0,*6E
1520852521.37,7884,9.0,72136.3,-2.07,-0.97,-0.85,0,*65
1520852522.58,7885,9.0,72136.0,-1.99,-0.65,-0.57,0,*62
1520852523.76,7886,9.0,72126.3,-2.01,-0.57,-0.41,0,*65
1520852524.97,7887,9.0,72126.3,-1.99,-0.65,-0.53,0,*64
1520852526.18,7888,9.0,72140.0,-1.95,-0.73,-0.53,0,*60
1520852527.44,7889,9.0,72128.8,-1.95,-1.09,-1.01,0,*6B
1520852528.63,7890,9.0,72112.8,-1.93,-1.25,-1.17,0,*6C
1520852529.84,7891,9.0,72104.0,-1.93,-1.35,-1.33,0,*6A
1520852531.08,7892,9.0,72098.3,-1.91,-1.55,-1.47,0,*6E
1520852532.29,7893,9.0,72098.3,-1.89,-1.51,-1.43,0,*66
1520852533.47,7894,9.0,72108.0,-1.93,-1.59,-1.59,0,*69
1520852534.71,7895,9.0,72102.8,-1.91,-1.55,-1.47,0,*69
1520852535.97,7896,9.0,72092.3,-1.91,-1.43,-1.43,0,*69
1520852537.19,7897,9.0,72092.3,-1.89,-1.43,-1.29,0,*6D
1520852538.42,7898,9.0,72094.0,-1.87,-1.51,-1.39,0,*6E
1520852539.66,7899,9.0,72078.0,-1.87,-1.59,-1.47,0,*6E
1520852540.87,7900,9.0,72058.8,-1.87,-1.71,-1.63,0,*63
1520852542.11,7901,9.0,72084.3,-1.87,-1.83,-1.75,0,*68
1520852543.37,7902,9.0,72068.3,-1.87,-1.91,-1.91,0,*62
1520852544.58,7903,9.0,72080.3,-1.87,-2.23,-2.15,0,*66
1520852545.76,7904,9.0,72074.5,-1.89,-2.43,-2.43,0,*6A
1520852547.01,7905,9.0,72082.5,-1.89,-2.55,-2.51,0,*6F
1520852548.25,7906,9.0,72086.8,-1.89,-2.67,-2.67,0,*68
1520852549.49,7907,9.0,72098.3,-1.89,-2.55,-2.51,0,*6D
1520852550.68,7908,9.0,72090.3,-1.93,-2.43,-2.43,0,*6D
1520852551.89,7909,9.0,72094.3,-1.91,-2.43,-2.31,0,*6B
1520852553.08,7910,9.0,72078.0,-1.93,-2.19,-2.19,0,*64
1520852554.32,7911,9.0,72080.5,-1.91,-2.23,-2.11,0,*66
1520852555.56,7912,9.0,72072.5,-1.93,-1.99,-1.91,0,*6E
1520852556.83,7913,9.0,72080.3,-1.91,-1.91,-1.91,0,*65
1520852558.1,7914,9.0,72088.0,-1.91,-2.11,-2.07,0,*65
1520852559.31,7915,9.0,72116.5,-1.91,-3.11,-3.11,0,*63
1520852560.55,7916,9.0,72128.5,-1.93,-3.43,-3.43,0,*62
1520852561.78,7917,9.0,72098.3,-1.93,-3.55,-3.55,0,*63
1520852563.04,7918,9.0,72138.8,-1.95,-3.63,-3.59,0,*63
1520852564.27,7919,9.0,72106.3,-1.97,-3.67,-3.67,0,*69
1520852565.46,7920,9.0,72114.5,-1.97,-3.79,-3.79,0,*63
1520852566.66,7921,9.0,72118.8,-2.01,-3.91,-3.91,0,*6E
1520852567.86,7922,9.0,72098.8,-2.01,-3.91,-3.91,0,*6D
1520852569.05,7923,9.0,72084.3,-2.01,-3.95,-3.95,0,*6C
1520852570.3,7924,9.0,72098.8,-2.07,-4.01,-4.09,0,*65
1520852571.56,7925,9.0,72120.0,-2.07,-4.01,-4.13,0,*6F
1520852572.75,7926,9.0,72124.0,-2.09,-4.13,-4.13,0,*61
1520852573.96,7927,9.0,72106.3,-2.11,-4.05,-4.05,0,*69
1520852575.17,7928,9.0,72084.0,-2.13,-4.09,-4.05,0,*68
1520852576.37,7929,9.0,72110.5,-2.15,-4.09,-4.13,0,*68
1520852577.56,7930,9.0,72104.3,-2.15,-4.13,-4.13,0,*6B
1520852578.76,7931,9.0,72102.8,-2.15,-4.13,-4.13,0,*6A
1520852579.95,7932,9.0,72114.5,-2.15,-4.13,-4.13,0,*69
1520852581.17,7933,9.0,72116.8,-2.17,-4.13,-4.09,0,*61
1520852582.36,7934,9.0,72112.0,-2.19,-4.17,-4.13,0,*67
1520852583.54,7935,9.0,72122.0,-2.19,-4.13,-4.13,0,*62
1520852584.76,7936,9.0,72120.3,-2.19,-4.05,-4.01,0,*65
1520852586.0,7937,9.0,72108.8,-2.21,-4.05,-4.01,0,*6F
1520852587.19,7938,9.0,72120.0,-2.23,-4.05,-4.09,0,*6A
1520852588.47,7939,9.0,72110.3,-2.21,-4.01,-4.01,0,*65
1520852589.66,7940,9.0,72110.3,-2.23,-3.95,-4.05,0,*67
1520852590.91,7941,9.0,72092.5,-2.29,-4.01,-4.09,0,*6A
1520852592.11,7942,9.0,72092.5,-2.27,-3.95,-3.95,0,*6F
1520852593.36,7943,9.0,72094.5,-2.29,-4.01,-3.95,0,*6A
1520852594.6,7944,9.0,72092.3,-2.29,-4.01,-3.95,0,*6D
1520852595.85,7945,9.0,72082.8,-2.29,-3.95,-4.01,0,*6C
1520852597.1,7946,9.0,72096.8,-2.29,-3.95,-4.01,0,*6F
1520852598.3,7947,9.0,72118.5,-2.31,-3.95,-3.95,0,*6D
1520852599.51,7948,9.0,72142.0,-2.31,-3.91,-3.91,0,*62
1520852600.71,7949,9.0,72122.3,-2.31,-3.95,-3.83,0,*64
1520852601.92,7950,9.0,72110.3,-2.31,-3.91,-3.95,0,*6F
1520852603.16,7951,9.0,72114.5,-2.33,-4.01,-3.87,0,*61
1520852604.39,7952,9.0,72104.0,-2.33,-3.95,-3.95,0,*6B
1520852605.64,7953,9.0,72132.0,-2.33,-4.01,-3.95,0,*60
1520852606.89,7954,9.0,72140.5,-2.33,-4.01,-3.95,0,*67
1520852608.11,7955,9.0,72120.5,-2.33,-3.87,-3.87,0,*6C
1520852609.3,7956,9.0,72108.5,-2.35,-3.87,-3.87,0,*69
1520852610.52,7957,9.0,72114.3,-2.33,-3.87,-3.87,0,*6E
1520852611.71,7958,9.0,72110.0,-2.35,-3.87,-3.83,0,*63
1520852612.92,7959,9.0,72112.5,-2.35,-3.83,-3.75,0,*6F
1520852614.13,7960,9.0,72118.0,-2.35,-3.75,-3.71,0,*68
1520852615.4,7961,9.0,72094.8,-2.37,-3.63,-3.63,0,*6F
1520852616.64,7962,9.0,72108.5,-2.35,-3.47,-3.51,0,*69
1520852617.88,7963,9.0,72110.3,-2.35,-3.51,-3.47,0,*68
1520852619.08,7964,9.0,72096.5,-2.35,-3.39,-3.39,0,*68
1520852620.27,7965,9.0,72090.0,-2.35,-3.39,-3.35,0,*65
1520852621.47,7966,9.0,72112.3,-2.35,-3.39,-3.35,0,*66
1520852622.66,7967,9.0,72106.8,-2.35,-3.35,-3.35,0,*6B
1520852623.88,7968,9.0,72102.8,-2.33,-3.39,-3.35,0,*6E
1520852625.11,7969,9.0,72114.3,-2.33,-3.39,-3.39,0,*63
1520852626.3,7970,9.0,72116.5,-2.35,-3.39,-3.35,0,*61
1520852627.52,7971,9.0,72076.8,-2.33,-3.39,-3.39,0,*6A
1520852628.72,7972,9.0,72052.3,-2.35,-3.39,-3.39,0,*6F
1520852629.91,7973,9.0,72080.3,-2.35,-3.39,-3.39,0,*6E
1520852631.11,7974,9.0,72108.8,-2.35,-3.39,-3.39,0,*69
1520852632.31,7975,9.0,72118.5,-2.35,-3.35,-3.35,0,*68
1520852633.49,7976,9.0,72106.3,-2.35,-3.27,-3.23,0,*6F
1520852634.68,7977,9.0,72088.5,-2.31,-3.23,-3.19,0,*67
1520852635.89,7978,9.0,72074.5,-2.33,-3.23,-3.23,0,*63
1520852637.09,7979,9.0,72062.0,-2.31,-3.19,-3.11,0,*68
1520852638.3,7980,9.0,72068.5,-2.33,-3.23,-3.23,0,*64
1520852639.49,7981,9.0,72082.3,-2.31,-3.19,-3.11,0,*6F
1520852640.71,7982,9.0,72080.8,-2.33,-3.15,-3.15,0,*66
1520852641.91,7983,9.0,72090.0,-2.31,-3.11,-3.11,0,*65
1520852643.1,7984,9.0,72102.3,-2.31,-3.11,-3.07,0,*65
1520852644.3,7985,9.0,72086.3,-2.31,-3.07,-3.03,0,*67
1520852645.51,7986,9.0,72086.5,-2.29,-3.07,-3.03,0,*6D
1520852646.73,7987,9.0,72102.0,-2.29,-3.03,-3.03,0,*68
1520852647.92,7988,9.0,72092.3,-2.27,-2.91,-2.79,0,*6F
1520852649.14,7989,9.0,72116.5,-2.27,-2.79,-2.75,0,*64
1520852650.39,7990,9.0,72106.5,-2.27,-2.75,-2.63,0,*67
1520852651.63,7991,9.0,72100.8,-2.27,-2.55,-2.55,0,*61
1520852652.85,7992,9.0,72118.8,-2.23,-2.51,-2.39,0,*68
1520852654.07,7993,9.0,72128.3,-2.21,-2.23,-2.19,0,*6C
1520852655.29,7994,9.0,72126.8,-2.23,-2.15,-2.11,0,*64
1520852656.55,7995,9.0,72144.8,-2.21,-2.07,-1.95,0,*6B
1520852657.79,7996,9.0,72156.5,-2.17,-1.95,-1.79,0,*67
1520852659.02,7997,9.0,72142.3,-2.17,-1.91,-1.79,0,*62
1520852660.27,7998,9.0,72140.5,-2.17,-1.83,-1.79,0,*6E
1520852661.48,7999,9.0,72146.8,-2.13,-1.75,-1.63,0,*69
1520852662.69,8000,9.0,72160.3,-2.11,-1.71,-1.59,0,*60
1520852663.88,8001,9.0,72170.5,-2.09,-1.75,-1.63,0,*65
1520852665.08,8002,9.0,72174.0,-2.09,-1.71,-1.51,0,*63
1520852666.32,8003,9.0,72174.5,-2.07,-1.47,-1.33,0,*6D
1520852667.53,8004,9.0,72174.0,-2.05,-1.17,-0.97,0,*52
1520852668.74,8005,9.0,72182.3,-2.01,-1.25,-1.13,0,*6B
1520852669.92,8006,9.0,72160.0,-2.01,-1.55,-1.55,0,*6D
1520852671.16,8007,9.0,72160.8,-1.99,-1.91,-1.75,0,*64
1520852672.41,8008,9.0,72144.3,-1.99,-1.87,-1.75,0,*6C
1520852673.61,8009,9.0,72130.5,-1.97,-1.59,-1.47,0,*61
1520852674.83,8010,9.0,72104.5,-1.93,-1.35,-1.21,0,*67
1520852676.02,8011,9.0,72132.3,-1.93,-1.71,-1.71,0,*63
1520852677.21,8012,9.0,72096.0,-1.93,-1.79,-1.79,0,*60
1520852678.45,8013,9.0,72134.8,-1.93,-1.83,-1.83,0,*61
1520852679.72,8014,9.0,72120.8,-1.91,-1.91,-1.83,0,*67
1520852680.96,8015,9.0,72072.5,-1.93,-2.11,-1.99,0,*64
1520852682.18,8016,9.0,72054.5,-1.91,-2.35,-2.35,0,*66
1520852683.44,8017,9.0,72062.5,-1.91,-2.59,-2.55,0,*6B
1520852684.69,8018,9.0,72066.3,-1.93,-2.71,-2.67,0,*6D
1520852685.93,8019,9.0,72090.5,-1.93,-2.71,-2.71,0,*6B
1520852687.17,8020,9.0,72052.8,-1.93,-2.75,-2.75,0,*61
1520852688.38,8021,9.0,72076.5,-1.93,-2.83,-2.75,0,*69
1520852689.59,8022,9.0,72086.3,-1.95,-2.87,-2.79,0,*64
1520852690.78,8023,9.0,72090.8,-1.93,-2.83,-2.83,0,*62
1520852691.99,8024,9.0,72100.5,-1.95,-2.99,-2.91,0,*6B
1520852693.17,8025,9.0,72058.3,-1.97,-2.99,-2.99,0,*60
1520852694.39,8026,9.0,72082.8,-1.95,-3.03,-2.99,0,*63
1520852695.58,8027,9.0,72092.3,-1.97,-3.11,-2.99,0,*63
1520852696.77,8028,9.0,72098.3,-1.97,-3.11,-3.11,0,*6D
1520852697.96,8029,9.0,72112.8,-1.97,-3.11,-2.99,0,*6D
1520852699.14,8030,9.0,72108.0,-1.97,-3.11,-3.03,0,*67
1520852700.33,8031,9.0,72120.8,-1.97,-3.11,-3.03,0,*66
1520852701.54,8032,9.0,72140.3,-1.99,-3.07,-2.95,0,*62
1520852702.74,8033,9.0,72140.3,-2.01,-3.03,-3.03,0,*6B
1520852703.94,8034,9.0,72158.0,-1.99,-2.91,-2.91,0,*6E
1520852705.15,8035,9.0,72176.5,-1.99,-2.83,-2.79,0,*6A
1520852706.39,8036,9.0,72158.3,-1.99,-2.83,-2.75,0,*65
1520852707.57,8037,9.0,72172.5,-2.01,-2.79,-2.79,0,*6F
1520852708.81,8038,9.0,72156.8,-1.99,-2.79,-2.75,0,*6E
1520852710.03,8039,9.0,72158.5,-1.99,-2.79,-2.79,0,*63
1520852711.27,8040,9.0,72158.8,-1.99,-2.79,-2.75,0,*61
1520852712.45,8041,9.0,72190.8,-2.01,-2.79,-2.79,0,*6E
1520852713.7,8042,9.0,72184.0,-1.99,-2.79,-2.75,0,*63
1520852714.9,8043,9.0,72176.8,-1.99,-2.91,-2.79,0,*68
1520852716.12,8044,9.0,72172.3,-1.99,-3.07,-3.03,0,*6D
1520852717.31,8045,9.0,72154.8,-2.01,-3.19,-3.27,0,*67
1520852718.52,8046,9.0,72144.8,-2.01,-3.43,-3.39,0,*64
1520852719.78,8047,9.0,72136.5,-1.99,-3.55,-3.51,0,*6E
1520852721.01,8048,9.0,72120.5,-2.05,-3.67,-3.71,0,*64
1520852722.24,8049,9.0,72138.5,-2.07,-3.83,-3.83,0,*60
1520852723.46,8050,9.0,72144.5,-2.07,-3.95,-3.87,0,*6B
1520852724.73,8051,9.0,72134.8,-2.07,-4.01,-4.01,0,*69
1520852725.92,8052,9.0,72140.8,-2.09,-4.05,-4.13,0,*63
1520852727.16,8053,9.0,72140.5,-2.11,-4.05,-4.01,0,*68
1520852728.41,8054,9.0,72138.0,-2.11,-4.01,-3.91,0,*65
1520852729.62,8055,9.0,72152.3,-2.13,-4.05,-3.95,0,*66
1520852730.87,8056,9.0,72170.8,-2.15,-4.01,-4.01,0,*6D
1520852732.1,8057,9.0,72174.5,-2.13,-3.91,-3.91,0,*6A
1520852733.3,8058,9.0,72158.0,-2.15,-3.95,-3.95,0,*63
1520852734.52,8059,9.0,72154.8,-2.15,-4.01,-3.95,0,*68
1520852735.79,8060,9.0,72154.0,-2.17,-4.01,-4.01,0,*6A
1520852737.0,8061,9.0,72156.0,-2.17,-4.09,-4.09,0,*6B
1520852738.18,8062,9.0,72164.8,-2.19,-4.17,-4.17,0,*66
1520852739.37,8063,9.0,72164.3,-2.19,-4.25,-4.17,0,*66
1520852740.59,8064,9.06,72186.0,-2.21,-4.25,-4.17,0,*6A
1520852741.79,8065,9.0,72172.0,-2.23,-4.21,-4.21,0,*68
1520852743.01,8066,9.0,72166.3,-2.21,-4.13,-4.13,0,*69
1520852744.2,8067,9.0,72152.5,-2.23,-4.17,-4.17,0,*6A
1520852745.4,8068,9.0,72144.3,-2.23,-4.17,-4.21,0,*60
1520852746.59,8069,9.0,72144.3,-2.23,-4.17,-4.17,0,*64
1520852747.82,8070,9.0,72144.0,-2.29,-4.25,-4.21,0,*62
1520852749.04,8071,9.0,72142.5,-2.29,-4.25,-4.25,0,*67
1520852750.24,8072,9.0,72148.0,-2.27,-4.29,-4.21,0,*62
1520852751.44,8073,9.0,72146.0,-2.31,-4.33,-4.33,0,*6C
1520852752.66,8074,9.0,72140.8,-2.29,-4.33,-4.37,0,*66
1520852753.88,8075,9.0,72114.0,-2.33,-4.41,-4.41,0,*68
1520852755.07,8076,9.0,72094.0,-2.31,-4.45,-4.45,0,*69
1520852756.28,8077,9.0,72098.8,-2.33,-4.49,-4.49,0,*6A
1520852757.5,8078,9.0,72114.8,-2.33,-4.49,-4.49,0,*65
1520852758.68,8079,9.0,72064.8,-2.35,-4.49,-4.49,0,*62
1520852759.87,8080,9.0,72008.3,-2.35,-4.49,-4.49,0,*64
1520852761.1,8081,9.0,72014.0,-2.37,-4.57,-4.57,0,*67
1520852762.32,8082,9.0,72066.3,-2.37,-4.53,-4.53,0,*64
1520852763.55,8083,9.0,72116.0,-2.37,-4.57,-4.57,0,*65
1520852764.75,8084,9.0,72148.8,-2.39,-4.57,-4.61,0,*69
1520852765.99,8085,9.0,72144.5,-2.41,-4.61,-4.73,0,*61
1520852767.25,8086,9.0,72142.5,-2.41,-4.73,-4.73,0,*61
1520852768.52,8087,9.0,72116.5,-2.41,-4.73,-4.73,0,*60
1520852769.75,8088,9.0,72106.5,-2.43,-4.77,-4.77,0,*6D
1520852770.99,8089,9.0,72118.3,-2.43,-4.77,-4.77,0,*6C
1520852772.22,8090,9.0,72108.5,-2.45,-4.77,-4.77,0,*62
1520852773.45,8091,9.0,72098.0,-2.45,-4.73,-4.73,0,*63
1520852774.69,8092,9.0,72080.0,-2.45,-4.73,-4.77,0,*64
1520852775.92,8093,9.0,72094.3,-2.45,-4.77,-4.77,0,*61
1520852777.17,8094,9.0,72102.0,-2.51,-4.77,-4.81,0,*6A
1520852778.41,8095,9.0,72094.0,-2.51,-4.65,-4.77,0,*61
1520852779.67,8096,9.0,72082.3,-2.51,-4.69,-4.69,0,*61
1520852780.88,8097,9.0,72088.3,-2.49,-4.65,-4.69,0,*65
1520852782.1,8098,9.0,72090.5,-2.51,-4.57,-4.65,0,*6E
1520852783.29,8099,9.0,72072.3,-2.53,-4.61,-4.61,0,*6C
1520852784.49,8100,9.0,72078.5,-2.53,-4.61,-4.57,0,*68
1520852785.68,8101,9.06,72072.3,-2.53,-4.57,-4.57,0,*6C
1520852786.87,8102,9.0,72076.0,-2.53,-4.57,-4.45,0,*6C
1520852788.05,8103,9.0,72106.5,-2.53,-4.45,-4.45,0,*6E
1520852789.26,8104,9.0,72126.3,-2.55,-4.37,-4.37,0,*6F
1520852790.46,8105,9.0,72100.3,-2.53,-4.33,-4.33,0,*68
1520852791.67,8106,9.0,71982.0,-2.55,-4.33,-4.33,0,*6D
1520852792.89,8107,9.0,72026.0,-2.55,-4.33,-4.33,0,*6C
1520852794.07,8108,9.0,72066.5,-2.53,-4.37,-4.33,0,*61
1520852795.29,8109,9.0,72120.3,-2.55,-4.33,-4.37,0,*66
1520852796.52,8110,9.0,72150.3,-2.55,-4.25,-4.21,0,*6E
1520852797.73,8111,9.0,72154.0,-2.55,-4.21,-4.17,0,*6E
1520852798.95,8112,9.0,72120.0,-2.55,-4.09,-4.09,0,*68
1520852800.13,8113,9.0,72088.0,-2.53,-4.09,-4.17,0,*60
1520852801.35,8114,9.0,72018.0,-2.55,-4.09,-4.09,0,*6E
1520852802.56,8115,9.0,72008.3,-2.55,-4.09,-4.09,0,*6F
1520852803.77,8116,9.0,72010.8,-2.55,-4.09,-3.95,0,*6E
1520852804.97,8117,9.0,72084.5,-2.53,-3.95,-3.91,0,*6F
1520852806.19,8118,9.0,72078.5,-2.55,-3.95,-3.95,0,*62
1520852807.41,8119,9.0,72094.3,-2.55,-3.95,-3.91,0,*67
1520852808.61,8120,9.0,72110.8,-2.53,-3.95,-3.91,0,*6B
1520852809.81,8121,9.0,72104.5,-2.53,-3.91,-3.91,0,*6E
1520852811.01,8122,9.0,72124.8,-2.53,-3.79,-3.91,0,*6B
1520852812.23,8123,9.0,72112.8,-2.53,-3.91,-3.71,0,*62
1520852813.43,8124,9.0,72096.0,-2.53,-3.91,-3.79,0,*6D
1520852814.62,8125,9.0,72096.8,-2.53,-3.83,-3.83,0,*6A
1520852815.82,8126,9.0,72090.8,-2.53,-3.83,-3.83,0,*69
1520852817.02,8127,9.0,72062.8,-2.53,-3.83,-3.91,0,*6B
1520852818.22,8128,9.0,72068.5,-2.53,-3.83,-3.83,0,*67
1520852819.4,8129,9.0,72072.3,-2.49,-3.87,-3.87,0,*6D
1520852820.62,8130,9.0,72070.0,-2.51,-3.79,-3.87,0,*6D
1520852821.84,8131,9.0,72082.5,-2.51,-3.79,-3.75,0,*61
1520852823.07,8132,9.0,72046.5,-2.49,-3.67,-3.67,0,*67
1520852824.29,8133,9.0,72052.0,-2.49,-3.75,-3.67,0,*65
1520852825.5,8134,9.0,71972.3,-2.49,-3.75,-3.67,0,*62
1520852826.72,8135,9.0,71978.0,-2.51,-3.75,-3.75,0,*69
1520852827.92,8136,9.0,71980.8,-2.49,-3.75,-3.75,0,*63
1520852829.13,8137,9.0,71972.3,-2.49,-3.75,-3.67,0,*61
1520852830.32,8138,9.0,71988.3,-2.49,-3.87,-3.87,0,*6D
1520852831.54,8139,9.0,71996.0,-2.51,-3.91,-3.91,0,*65
1520852832.81,8140,9.0,71998.3,-2.51,-4.01,-4.01,0,*6B
1520852834.05,8141,9.0,72016.5,-2.49,-4.01,-4.01,0,*63
1520852835.27,8142,9.0,72018.8,-2.51,-4.05,-4.13,0,*6E
1520852836.48,8143,9.0,72014.5,-2.45,-4.13,-4.01,0,*6E
1520852837.7,8144,9.0,72010.8,-2.51,-4.17,-4.13,0,*6B
1520852838.89,8145,9.0,72026.0,-2.49,-4.17,-4.13,0,*63
1520852840.1,8146,9.0,72050.3,-2.51,-4.17,-4.21,0,*68
1520852841.29,8147,9.0,72026.8,-2.49,-4.13,-4.17,0,*61
1520852842.47,8148,9.0,72042.3,-2.49,-4.13,-4.05,0,*6D
1520852843.69,8149,9.0,72046.0,-2.51,-4.05,-4.05,0,*62
1520852844.87,8150,9.0,72034.5,-2.49,-4.13,-4.05,0,*64
1520852846.09,8151,9.0,72050.3,-2.51,-4.13,-4.05,0,*6C
1520852847.27,8152,9.0,72056.3,-2.49,-4.05,-4.05,0,*61
1520852848.51,8153,9.0,72060.8,-2.51,-4.05,-4.01,0,*6D
1520852849.76,8154,9.0,72054.8,-2.51,-4.01,-3.91,0,*60
1520852851.0,8155,9.0,72062.5,-2.51,-4.01,-3.91,0,*61
1520852852.22,8156,9.0,72068.8,-2.51,-3.91,-3.87,0,*6B
1520852853.44,8157,9.0,72060.5,-2.51,-3.87,-3.79,0,*6C
1520852854.66,8158,9.0,72060.0,-2.51,-3.87,-3.79,0,*63
1520852855.87,8159,9.0,72054.8,-2.51,-3.87,-3.79,0,*62
1520852857.09,8160,9.0,72060.8,-2.51,-3.91,-3.87,0,*6E
1520852858.34,8161,9.0,72070.3,-2.51,-4.01,-3.79,0,*60
1520852859.56,8162,9.0,72052.3,-2.51,-3.79,-3.79,0,*6B
1520852860.78,8163,9.0,72046.5,-2.51,-3.87,-3.79,0,*6B
1520852861.97,8164,9.0,72060.5,-2.49,-3.87,-3.79,0,*65
1520852863.19,8165,9.0,72068.8,-2.51,-3.79,-3.79,0,*6C
1520852864.39,8166,9.0,72074.0,-2.53,-3.83,-3.83,0,*6D
1520852865.61,8167,9.0,72092.3,-2.51,-3.79,-3.75,0,*62
1520852866.82,8168,9.0,72062.3,-2.53,-3.71,-3.79,0,*6B
1520852868.08,8169,9.0,72056.3,-2.51,-3.67,-3.67,0,*60
1520852869.34,8170,9.0,72096.3,-2.51,-3.63,-3.55,0,*6D
1520852870.6,8171,9.0,72042.3,-2.51,-3.51,-3.43,0,*6A
1520852871.81,8172,9.0,72070.3,-2.49,-3.43,-3.39,0,*6E
1520852873.02,8173,9.0,72060.3,-2.49,-3.43,-3.31,0,*67
1520852874.21,8174,9.0,72092.8,-2.49,-3.31,-3.27,0,*62
1520852875.4,8175,9.0,72046.0,-2.49,-3.15,-3.15,0,*64
1520852876.59,8176,9.0,72058.5,-2.45,-3.07,-2.99,0,*6D
1520852877.78,8177,9.0,72062.5,-2.43,-2.99,-2.87,0,*63
1520852879.0,8178,9.0,72012.0,-2.45,-2.83,-2.75,0,*6C
1520852880.21,8179,9.0,72040.5,-2.43,-2.83,-2.71,0,*6F
1520852881.48,8180,9.0,72058.8,-2.41,-2.67,-2.59,0,*6B
1520852882.73,8181,9.0,72070.5,-2.39,-2.55,-2.55,0,*68
1520852883.97,8182,9.0,72054.0,-2.41,-2.55,-2.43,0,*63
1520852885.21,8183,9.0,72036.3,-2.37,-2.51,-2.43,0,*67
1520852886.41,8184,9.0,72048.8,-2.35,-2.31,-2.31,0,*61
1520852887.65,8185,9.0,72050.8,-2.35,-2.07,-1.95,0,*68
1520852888.87,8186,9.0,72050.0,-2.35,-2.23,-2.07,0,*65
1520852890.09,8187,9.0,72090.5,-2.33,-2.39,-2.31,0,*6C
1520852891.32,8188,9.0,72058.5,-2.31,-2.47,-2.35,0,*6C
1520852892.56,8189,9.0,72066.3,-2.31,-2.67,-2.55,0,*69
1520852893.77,8190,9.0,72066.0,-2.29,-2.83,-2.79,0,*6C
1520852894.99,8191,9.0,72096.5,-2.29,-2.83,-2.83,0,*68
1520852896.23,8192,9.0,72098.3,-2.29,-2.83,-2.71,0,*66
1520852897.49,8193,9.0,72082.0,-2.29,-2.59,-2.59,0,*6A
1520852898.74,8194,9.0,72110.0,-2.27,-2.55,-2.51,0,*67
1520852899.96,8195,9.0,72106.5,-2.27,-2.51,-2.43,0,*61
1520852901.15,8196,9.0,72108.3,-2.27,-2.43,-2.39,0,*6C
1520852902.37,8197,9.0,72110.0,-2.27,-2.55,-2.39,0,*6A
1520852903.59,8198,9.0,72088.8,-2.23,-2.55,-2.43,0,*6C
1520852904.8,8199,9.0,72092.5,-2.23,-2.55,-2.43,0,*6D
1520852906.05,8200,9.0,72078.8,-2.21,-2.47,-2.39,0,*62
1520852907.3,8201,9.0,72058.3,-2.23,-2.47,-2.51,0,*6F
1520852908.57,8202,9.0,72078.0,-2.21,-2.51,-2.47,0,*6E
1520852909.84,8203,9.0,72064.3,-2.21,-2.51,-2.47,0,*6F
1520852911.09,8204,9.0,72068.3,-2.21,-2.47,-2.39,0,*66
1520852912.33,8205,9.0,72066.3,-2.21,-2.47,-2.35,0,*6B
1520852913.52,8206,9.0,72098.3,-2.19,-2.35,-2.35,0,*66
1520852914.71,8207,9.0,72100.3,-2.19,-2.35,-2.23,0,*60
1520852915.92,8208,9.0,72110.3,-2.17,-2.19,-2.15,0,*6A
1520852917.19,8209,9.0,72112.0,-2.17,-2.03,-1.83,0,*6C
1520852918.42,8210,9.0,72112.0,-2.13,-1.63,-1.43,0,*69
1520852919.66,8211,9.0,72124.3,-2.13,-1.55,-1.39,0,*60
1520852920.9,8212,9.0,72108.0,-2.11,-1.51,-1.39,0,*65
1520852922.14,8213,9.0,72094.0,-2.09,-1.47,-1.35,0,*66
1520852923.39,8214,9.0,72108.5,-2.09,-1.39,-1.35,0,*68
1520852924.63,8215,9.0,72112.5,-2.07,-1.35,-1.33,0,*6D
1520852925.85,8216,9.0,72114.8,-2.07,-1.33,-1.33,0,*68
1520852927.06,8217,9.0,72112.0,-2.01,-1.43,-1.33,0,*68
1520852928.3,8218,9.0,72104.5,-1.99,-1.55,-1.43,0,*65
1520852929.51,8219,9.0,72106.3,-1.99,-1.75,-1.55,0,*61
1520852930.75,8220,9.0,72092.8,-1.99,-1.87,-1.67,0,*67